Ketchikan, AK

9:36 PM AKDT on September 20, 2018 (GMT -0800)
Ketchikan International

Weather History for PAKT - March, 2018

Change the Weather History Date:

Thursday, March 15, 2018

  Actual Average Record
Temperature  
Mean Temperature 40 °F -  
Max Temperature 44 °F 43 °F 55 °F (1966)
Min Temperature 35 °F 32 °F 14 °F (2006)
Degree Days  
Heating Degree Days 26    
Moisture  
Dew Point 37 °F    
Average Humidity 91    
Maximum Humidity 100    
Minimum Humidity 71    
Precipitation  
Precipitation 0.04 in - - ()
Sea Level Pressure  
Sea Level Pressure 29.98 in    
Wind  
Wind Speed 2 mph (WNW)    
Max Wind Speed 8 mph    
Max Gust Speed -    
Visibility 10 miles    
Events Rain    
Averages and records for this station are not official NWS values.
T = Trace of Precipitation, MM = Missing Value Source: NWS Daily Summary

Daily Weather History Graph

Daily Weather History Graph

Search for Another Location

Airport or City:

Astronomy

Mar. 15, 2018 Rise Set
Actual Time 7:01 AM AKDT 6:51 PM AKDT
Civil Twilight 6:25 AM AKDT 7:27 PM AKDT
Nautical Twilight 5:42 AM AKDT 8:10 PM AKDT
Astronomical Twilight 4:57 AM AKDT 8:55 PM AKDT
Moon 6:47 AM AKDT (3/15) 4:49 PM AKDT (3/15)
Length of Visible Light 13h 02m
Length of Day
11h 49m
Waning Crescent, 3% of the Moon is Illuminated
Mar 15
Waning Crescent
Mar 17
New
Mar 24
First Quarter
Mar 31
Full
Apr 7
Last Quarter

Hourly Weather History & Observations

Time (AKDT) Temp. Windchill Dew Point Humidity Pressure Visibility Wind Dir Wind Speed Gust Speed Precip Events Conditions
12:14 AM 39.9 °F 36.7 °F 36.0 °F 86% 29.89 in 6.0 mi South 4.6 mph - 0.00 in Rain Light Rain
12:39 AM 37.9 °F - 36.0 °F 93% 29.90 in 10.0 mi Calm Calm - 0.01 in   Overcast
12:53 AM 37.9 °F - 37.0 °F 97% 29.91 in 10.0 mi Calm Calm - 0.01 in   Overcast
1:53 AM 37.9 °F - 36.0 °F 93% 29.92 in 10.0 mi Calm Calm - 0.01 in   Partly Cloudy
2:53 AM 37.0 °F - 35.1 °F 93% 29.92 in 10.0 mi Calm Calm - N/A   Clear
3:53 AM 37.0 °F - 36.0 °F 96% 29.94 in 10.0 mi Calm Calm - N/A   Clear
4:53 AM 36.0 °F - 35.1 °F 97% 29.94 in 10.0 mi Calm Calm - N/A   Partly Cloudy
5:53 AM 35.1 °F 31.0 °F 34.0 °F 96% 29.95 in 10.0 mi WNW 4.6 mph - N/A   Clear
6:01 AM 35.1 °F 30.1 °F 34.0 °F 96% 29.95 in 10.0 mi WNW 5.8 mph - N/A   Clear
6:53 AM 35.6 °F 32.8 °F 33.8 °F 93% 29.95 in 10.0 mi West 3.5 mph - N/A   Mostly Cloudy
7:53 AM 37.4 °F 32.8 °F 35.6 °F 93% 29.96 in 10.0 mi WNW 5.8 mph - N/A   Scattered Clouds
8:53 AM 37.4 °F 32.1 °F 37.4 °F 100% 29.97 in 10.0 mi WNW 6.9 mph - N/A   Mostly Cloudy
9:53 AM 39.2 °F 35.0 °F 37.4 °F 93% 29.97 in 10.0 mi NW 5.8 mph - N/A   Overcast
10:53 AM 42.1 °F 39.2 °F 39.0 °F 89% 29.98 in 10.0 mi WNW 4.6 mph - N/A   Overcast
11:53 AM 42.8 °F 38.0 °F 39.2 °F 87% 29.99 in 10.0 mi NNW 8.1 mph - N/A   Overcast
12:53 PM 42.8 °F 39.3 °F 37.4 °F 81% 30.01 in 10.0 mi North 5.8 mph - N/A   Overcast
1:53 PM 42.8 °F 40.1 °F 37.4 °F 81% 30.01 in 10.0 mi NW 4.6 mph - N/A   Overcast
2:53 PM 44.6 °F 43.1 °F 35.6 °F 71% 30.01 in 10.0 mi WNW 3.5 mph - N/A   Overcast
3:53 PM 44.6 °F - 37.4 °F 76% 30.01 in 10.0 mi Calm Calm - N/A Rain Light Rain
4:53 PM 42.8 °F - 39.2 °F 87% 30.02 in 8.0 mi Calm Calm - N/A Rain Light Rain
5:53 PM 42.8 °F - 39.2 °F 87% 30.02 in 7.0 mi Calm Calm - N/A Rain Light Rain
6:53 PM 41.0 °F - 39.0 °F 93% 30.03 in 10.0 mi Calm Calm - 0.02 in Rain Light Rain
7:53 PM 39.2 °F - 37.4 °F 93% 30.02 in 10.0 mi Calm Calm - N/A   Overcast
8:53 PM 37.9 °F - 37.0 °F 97% 30.03 in 10.0 mi Calm Calm - N/A   Overcast
9:29 PM 37.9 °F - 37.0 °F 97% 30.03 in 10.0 mi Calm Calm - 0.00 in Rain Light Rain
9:38 PM 39.0 °F - 37.0 °F 93% 30.03 in 10.0 mi Calm Calm - 0.00 in Rain Light Rain
9:53 PM 37.9 °F - 37.0 °F 97% 30.04 in 10.0 mi Calm Calm - 0.00 in Rain Light Rain
10:53 PM 37.9 °F - 37.0 °F 97% 30.03 in 10.0 mi Calm Calm - 0.00 in   Overcast
11:53 PM 37.9 °F 34.4 °F 37.0 °F 97% 30.03 in 10.0 mi WNW 4.6 mph - N/A   Scattered Clouds